TUI5GY EDDF-LPMA

Flight info

Callsign TUI5GY
Flight time 3h 47m
Altitude 33000
Route ANEKI3F/25C ANEKI Y163 HERBI Y164 MOPAN DCT LUTIX DCT BENOT DCT NEMOS DCT NINTU/N0451F350 DCT MEBAK DCT REPSI DCT LERGA DCT MINSO DCT NARAK DCT AGN DCT LATEK DCT PPN DCT MIRPO DCT DGO DCT NEA DCT ARDID DCT GANSU DCT NARTA DCT RAKUN
Aircraft B738/M-SDE2E3FGHIRWXY/LB1

Departure

Time 2026-04-14 09:25
Airport Frankfurt Main Airport (EDDF)

Arrival

Time 2026-04-14 13:12
Airport Cristiano Ronaldo International Airport (LPMA)
Time Latitude Longitude Altitude Speed Heading
2026-04-14 08:40 50.05066 8.58834 358 ft 0 kts 340°
2026-04-14 09:18 50.05061 8.58837 358 ft 4 kts 340°
2026-04-14 09:18 50.05036 8.58850 360 ft 4 kts 341°
2026-04-14 09:18 50.05011 8.58866 361 ft 4 kts 321°
2026-04-14 09:18 50.05002 8.58887 362 ft 2 kts 250°
2026-04-14 09:19 50.05002 8.58888 362 ft 0 kts 250°
2026-04-14 09:21 50.05002 8.58887 362 ft 1 kts 250°
2026-04-14 09:21 50.04996 8.58863 361 ft 4 kts 250°
2026-04-14 09:21 50.04981 8.58797 361 ft 8 kts 250°
2026-04-14 09:22 50.04956 8.58704 361 ft 9 kts 237°
2026-04-14 09:22 50.04903 8.58674 360 ft 8 kts 172°
2026-04-14 09:22 50.04852 8.58704 362 ft 8 kts 158°
2026-04-14 09:22 50.04803 8.58734 366 ft 8 kts 159°
2026-04-14 09:23 50.04753 8.58762 368 ft 7 kts 161°
2026-04-14 09:23 50.04703 8.58768 368 ft 7 kts 185°
2026-04-14 09:23 50.04645 8.58759 369 ft 11 kts 185°
2026-04-14 09:23 50.04585 8.58717 370 ft 10 kts 219°
2026-04-14 09:24 50.04521 8.58634 370 ft 13 kts 219°
2026-04-14 09:24 50.04469 8.58510 369 ft 15 kts 249°
2026-04-14 09:24 50.04383 8.58154 370 ft 68 kts 249°
2026-04-14 09:24 50.04140 8.57135 364 ft 131 kts 250°
2026-04-14 09:25 50.03784 8.55541 411 ft 175 kts 253°
2026-04-14 09:25 50.03348 8.53665 1004 ft 184 kts 251°
2026-04-14 09:25 50.02925 8.51876 1961 ft 178 kts 249°
2026-04-14 09:25 50.02081 8.50365 2385 ft 203 kts 207°
2026-04-14 09:26 50.00696 8.49578 2768 ft 220 kts 200°
2026-04-14 09:26 49.99179 8.49081 3158 ft 230 kts 174°
2026-04-14 09:26 49.97740 8.50010 3715 ft 225 kts 133°
2026-04-14 09:26 49.96838 8.51953 4283 ft 224 kts 124°
2026-04-14 09:27 49.95548 8.53377 4606 ft 242 kts 165°
2026-04-14 09:27 49.93821 8.53509 4949 ft 259 kts 182°
2026-04-14 09:27 49.91946 8.53453 5375 ft 275 kts 180°
2026-04-14 09:27 49.90023 8.53459 6134 ft 277 kts 180°
2026-04-14 09:28 49.88082 8.53516 6905 ft 280 kts 179°
2026-04-14 09:28 49.86136 8.53610 7631 ft 281 kts 179°
2026-04-14 09:28 49.84836 8.53688 8152 ft 281 kts 179°
2026-04-14 09:28 49.82854 8.53819 8923 ft 282 kts 179°
2026-04-14 09:29 49.80913 8.53954 9683 ft 283 kts 179°
2026-04-14 09:29 49.78941 8.54093 10404 ft 285 kts 179°
2026-04-14 09:29 49.76876 8.54125 10676 ft 303 kts 184°
2026-04-14 09:29 49.74707 8.53875 10836 ft 324 kts 186°
2026-04-14 09:30 49.72395 8.53523 11029 ft 342 kts 187°
2026-04-14 09:30 49.69985 8.53148 11467 ft 352 kts 187°
2026-04-14 09:30 49.67574 8.52787 12113 ft 354 kts 186°
2026-04-14 09:30 49.65110 8.52434 12802 ft 357 kts 186°
2026-04-14 09:31 49.62625 8.52090 13450 ft 360 kts 186°
2026-04-14 09:31 49.60119 8.51750 14069 ft 364 kts 186°
2026-04-14 09:31 49.57559 8.51407 14655 ft 366 kts 186°
2026-04-14 09:31 49.55039 8.51073 15235 ft 369 kts 186°
2026-04-14 09:32 49.52469 8.50733 15810 ft 372 kts 186°
2026-04-14 09:32 49.49888 8.50393 16377 ft 375 kts 186°
2026-04-14 09:32 49.44648 8.49702 17483 ft 381 kts 186°
2026-04-14 09:33 49.41996 8.49353 18036 ft 384 kts 186°
2026-04-14 09:33 49.39325 8.49001 18564 ft 387 kts 186°
2026-04-14 09:33 49.36630 8.48647 19031 ft 390 kts 186°
2026-04-14 09:33 49.33916 8.48291 19508 ft 392 kts 186°
2026-04-14 09:34 49.31187 8.47933 19981 ft 394 kts 186°
2026-04-14 09:34 49.28442 8.47578 20438 ft 397 kts 186°
2026-04-14 09:34 49.25682 8.47227 20896 ft 399 kts 186°
2026-04-14 09:34 49.22907 8.46877 21343 ft 402 kts 186°
2026-04-14 09:35 49.20110 8.46525 21783 ft 405 kts 186°
2026-04-14 09:35 49.17294 8.46171 22199 ft 407 kts 186°
2026-04-14 09:35 49.14460 8.45814 22621 ft 410 kts 186°
2026-04-14 09:35 49.11608 8.45455 23043 ft 412 kts 186°
2026-04-14 09:36 49.08742 8.45094 23453 ft 415 kts 186°
2026-04-14 09:36 49.05860 8.44665 23829 ft 417 kts 189°
2026-04-14 09:36 49.03012 8.43790 24167 ft 418 kts 194°
2026-04-14 09:36 49.00171 8.42758 24532 ft 420 kts 194°
2026-04-14 09:37 48.97329 8.41702 24875 ft 421 kts 194°
2026-04-14 09:37 48.94476 8.40657 25200 ft 424 kts 194°
2026-04-14 09:37 48.91594 8.39625 25533 ft 426 kts 194°
2026-04-14 09:37 48.88707 8.38609 25864 ft 427 kts 194°
2026-04-14 09:38 48.85799 8.37596 26179 ft 429 kts 194°
2026-04-14 09:38 48.82885 8.36584 26506 ft 431 kts 194°
2026-04-14 09:38 48.79958 8.35568 26843 ft 432 kts 194°
2026-04-14 09:38 48.77023 8.34538 27152 ft 434 kts 194°
2026-04-14 09:39 48.74113 8.33485 27438 ft 436 kts 194°
2026-04-14 09:39 48.71154 8.32402 27702 ft 438 kts 194°
2026-04-14 09:39 48.68192 8.31317 27977 ft 439 kts 195°
2026-04-14 09:39 48.65224 8.30233 28259 ft 441 kts 194°
2026-04-14 09:40 48.62227 8.29144 28534 ft 442 kts 194°
2026-04-14 09:40 48.59232 8.28059 28883 ft 442 kts 195°
2026-04-14 09:40 48.56253 8.26982 29306 ft 440 kts 195°
2026-04-14 09:40 48.53279 8.25908 29759 ft 437 kts 195°
2026-04-14 09:41 48.50325 8.24843 30148 ft 436 kts 195°
2026-04-14 09:41 48.47370 8.23776 30433 ft 436 kts 195°
2026-04-14 09:41 48.44421 8.22702 30648 ft 438 kts 195°
2026-04-14 09:41 48.41456 8.21621 30875 ft 439 kts 195°
2026-04-14 09:42 48.38489 8.20539 31127 ft 439 kts 195°
2026-04-14 09:42 48.35520 8.19459 31362 ft 439 kts 195°
2026-04-14 09:42 48.32549 8.18379 31573 ft 440 kts 195°
2026-04-14 09:42 48.29568 8.17299 31813 ft 440 kts 195°
2026-04-14 09:43 48.26583 8.16218 32054 ft 441 kts 195°
2026-04-14 09:43 48.23657 8.14881 32248 ft 441 kts 204°
2026-04-14 09:43 48.20882 8.12942 32455 ft 440 kts 207°
2026-04-14 09:43 48.18145 8.10886 32701 ft 440 kts 208°
2026-04-14 09:44 48.15409 8.08808 32909 ft 441 kts 208°
2026-04-14 09:44 48.12671 8.06737 33115 ft 442 kts 208°
2026-04-14 09:44 48.09907 8.04663 33171 ft 445 kts 207°
2026-04-14 09:45 48.04359 8.00547 33167 ft 444 kts 207°
2026-04-14 09:45 47.98837 7.96487 33164 ft 441 kts 207°
2026-04-14 09:46 47.93353 7.92470 33166 ft 438 kts 207°
2026-04-14 09:46 47.87892 7.88477 33170 ft 437 kts 207°
2026-04-14 09:47 47.82432 7.84492 33177 ft 438 kts 207°
2026-04-14 09:47 47.76944 7.80497 33180 ft 440 kts 207°
2026-04-14 09:48 47.71427 7.76489 33177 ft 443 kts 207°
2026-04-14 09:48 47.65869 7.72461 33178 ft 446 kts 207°
2026-04-14 09:49 47.60278 7.68420 33192 ft 448 kts 207°
2026-04-14 09:49 47.54653 7.64364 33181 ft 450 kts 207°
2026-04-14 09:50 47.52368 7.62719 33191 ft 451 kts 207°
2026-04-14 09:50 47.46717 7.58658 33184 ft 452 kts 207°
2026-04-14 09:51 47.41058 7.54601 33172 ft 451 kts 207°
2026-04-14 09:51 47.35419 7.50567 33148 ft 450 kts 207°
2026-04-14 09:52 47.29790 7.46549 33159 ft 449 kts 207°
2026-04-14 09:52 47.24176 7.42551 33152 ft 448 kts 207°
2026-04-14 09:53 47.18622 7.38459 33144 ft 445 kts 214°
2026-04-14 09:53 47.13951 7.32628 33154 ft 439 kts 232°
2026-04-14 09:54 47.10211 7.25540 33160 ft 439 kts 234°
2026-04-14 09:54 47.06444 7.18471 33146 ft 441 kts 233°
2026-04-14 09:55 47.02602 7.11437 33140 ft 443 kts 233°
2026-04-14 09:55 46.98736 7.04402 33123 ft 445 kts 233°
2026-04-14 09:56 46.94850 6.97331 33136 ft 446 kts 233°
2026-04-14 09:56 46.90946 6.90243 33136 ft 448 kts 233°
2026-04-14 09:57 46.87044 6.83180 33121 ft 450 kts 233°
2026-04-14 09:57 46.83105 6.76067 33133 ft 450 kts 233°
2026-04-14 09:58 46.79158 6.68956 33130 ft 451 kts 233°
2026-04-14 09:58 46.75208 6.61855 33131 ft 452 kts 233°
2026-04-14 09:59 46.71244 6.54748 33140 ft 451 kts 233°
2026-04-14 09:59 46.67278 6.47656 33135 ft 451 kts 233°
2026-04-14 10:00 46.63311 6.40580 33133 ft 451 kts 233°
2026-04-14 10:00 46.59346 6.33526 33132 ft 450 kts 233°
2026-04-14 10:01 46.55376 6.26481 33139 ft 450 kts 233°
2026-04-14 10:01 46.51406 6.19452 33141 ft 451 kts 233°
2026-04-14 10:02 46.47417 6.12410 33130 ft 452 kts 233°
2026-04-14 10:02 46.43445 6.05408 33129 ft 453 kts 233°
2026-04-14 10:03 46.39407 5.98316 33136 ft 458 kts 233°
2026-04-14 10:03 46.35333 5.91180 33143 ft 461 kts 233°
2026-04-14 10:04 46.31227 5.84005 33129 ft 463 kts 233°
2026-04-14 10:04 46.27110 5.76830 33131 ft 463 kts 233°
2026-04-14 10:05 46.22997 5.69678 33134 ft 462 kts 233°
2026-04-14 10:05 46.18897 5.62563 33139 ft 460 kts 233°
2026-04-14 10:06 46.14802 5.55465 33145 ft 459 kts 234°
2026-04-14 10:06 46.11094 5.48047 33147 ft 455 kts 239°
2026-04-14 10:07 46.07549 5.40514 33145 ft 454 kts 239°
2026-04-14 10:07 46.03991 5.33014 33154 ft 453 kts 239°
2026-04-14 10:08 46.00403 5.25548 33147 ft 453 kts 238°
2026-04-14 10:08 45.96806 5.18110 33163 ft 454 kts 238°
2026-04-14 10:09 45.93195 5.10668 33151 ft 455 kts 238°
2026-04-14 10:09 45.89589 5.03250 33165 ft 456 kts 238°
2026-04-14 10:10 45.85950 4.95782 33159 ft 458 kts 238°
2026-04-14 10:10 45.82263 4.88235 33345 ft 464 kts 238°
2026-04-14 10:10 45.80405 4.84440 33552 ft 465 kts 238°
2026-04-14 10:11 45.78548 4.80655 33817 ft 464 kts 238°
2026-04-14 10:11 45.76691 4.76873 34066 ft 463 kts 238°
2026-04-14 10:11 45.75462 4.74371 34190 ft 463 kts 238°
2026-04-14 10:11 45.72980 4.69325 34403 ft 464 kts 238°
2026-04-14 10:12 45.71747 4.66823 34519 ft 464 kts 238°
2026-04-14 10:12 45.69253 4.61773 34747 ft 464 kts 238°
2026-04-14 10:12 45.68018 4.59280 34879 ft 464 kts 238°
2026-04-14 10:12 45.66155 4.55521 35066 ft 463 kts 238°
2026-04-14 10:13 45.64295 4.51775 35149 ft 464 kts 238°
2026-04-14 10:13 45.59911 4.42954 35161 ft 466 kts 238°
2026-04-14 10:14 45.56787 4.36685 35151 ft 465 kts 238°
2026-04-14 10:14 45.53040 4.29182 35157 ft 463 kts 238°
2026-04-14 10:15 45.49298 4.21714 35153 ft 462 kts 238°
2026-04-14 10:15 45.45560 4.14270 35165 ft 461 kts 238°
2026-04-14 10:16 45.41826 4.06847 35156 ft 461 kts 238°
2026-04-14 10:16 45.38079 3.99417 35168 ft 462 kts 238°
2026-04-14 10:17 45.34324 3.91990 35157 ft 463 kts 238°
2026-04-14 10:17 45.30555 3.84554 35158 ft 464 kts 238°
2026-04-14 10:18 45.24882 3.73383 35145 ft 465 kts 238°
2026-04-14 10:18 45.21182 3.65901 35133 ft 466 kts 239°
2026-04-14 10:19 45.17477 3.58344 35142 ft 467 kts 239°
2026-04-14 10:19 45.13759 3.50802 35141 ft 467 kts 238°
2026-04-14 10:20 45.10020 3.43257 35148 ft 467 kts 238°
2026-04-14 10:20 45.06284 3.35745 35160 ft 467 kts 238°
2026-04-14 10:21 45.02539 3.28233 35165 ft 467 kts 238°
2026-04-14 10:21 44.98799 3.20749 35158 ft 466 kts 238°
2026-04-14 10:22 44.95060 3.13288 35163 ft 464 kts 238°
2026-04-14 10:22 44.91328 3.05857 35152 ft 463 kts 238°
2026-04-14 10:23 44.87628 2.98506 35149 ft 462 kts 238°
2026-04-14 10:23 44.83918 2.91127 35147 ft 461 kts 239°
2026-04-14 10:24 44.80413 2.83598 35148 ft 459 kts 241°
2026-04-14 10:24 44.76989 2.76038 35145 ft 458 kts 241°
2026-04-14 10:25 44.73541 2.68505 35150 ft 457 kts 240°
2026-04-14 10:25 44.70072 2.61007 35141 ft 457 kts 240°
2026-04-14 10:26 44.66596 2.53531 35153 ft 457 kts 240°
2026-04-14 10:26 44.63121 2.46078 35158 ft 456 kts 240°
2026-04-14 10:27 44.59633 2.38614 35161 ft 457 kts 240°
2026-04-14 10:27 44.56137 2.31151 35161 ft 458 kts 240°
2026-04-14 10:28 44.52655 2.23736 35163 ft 458 kts 240°
2026-04-14 10:28 44.49144 2.16279 35158 ft 459 kts 240°
2026-04-14 10:29 44.45627 2.08829 35173 ft 459 kts 240°
2026-04-14 10:29 44.42097 2.01370 35164 ft 460 kts 240°
2026-04-14 10:30 44.38564 1.93925 35176 ft 459 kts 240°
2026-04-14 10:30 44.35027 1.86488 35174 ft 459 kts 240°
2026-04-14 10:31 44.31487 1.79062 35187 ft 458 kts 240°
2026-04-14 10:31 44.27964 1.71637 35186 ft 457 kts 241°
2026-04-14 10:32 44.24538 1.64168 35198 ft 457 kts 242°
2026-04-14 10:32 44.21132 1.56711 35193 ft 456 kts 241°
2026-04-14 10:33 44.17714 1.49276 35200 ft 455 kts 241°
2026-04-14 10:33 44.14313 1.41916 35198 ft 454 kts 241°
2026-04-14 10:34 44.09163 1.30812 35209 ft 453 kts 241°
2026-04-14 10:35 44.05744 1.23464 35204 ft 452 kts 241°
2026-04-14 10:35 44.02347 1.16178 35223 ft 451 kts 241°
2026-04-14 10:36 43.98927 1.08863 35212 ft 451 kts 241°
2026-04-14 10:36 43.95505 1.01560 35216 ft 451 kts 241°
2026-04-14 10:37 43.92074 0.94254 35221 ft 452 kts 241°
2026-04-14 10:37 43.88610 0.86983 35222 ft 454 kts 237°
2026-04-14 10:38 43.84476 0.80304 35217 ft 457 kts 231°
2026-04-14 10:38 43.80164 0.73811 35234 ft 458 kts 231°
2026-04-14 10:39 43.75865 0.67294 35218 ft 459 kts 231°
2026-04-14 10:39 43.71584 0.60737 35230 ft 459 kts 232°
2026-04-14 10:40 43.67303 0.54162 35218 ft 460 kts 232°
2026-04-14 10:40 43.63014 0.47586 35223 ft 461 kts 232°
2026-04-14 10:41 43.58712 0.41009 35213 ft 462 kts 232°
2026-04-14 10:41 43.54433 0.34483 35224 ft 462 kts 231°
2026-04-14 10:42 43.50116 0.27916 35211 ft 463 kts 231°
2026-04-14 10:42 43.45789 0.21347 35224 ft 463 kts 231°
2026-04-14 10:43 43.41459 0.14790 35212 ft 464 kts 232°
2026-04-14 10:43 43.37119 0.08233 35219 ft 464 kts 231°
2026-04-14 10:44 43.32768 0.01673 35204 ft 464 kts 231°
2026-04-14 10:44 43.30587 -0.01603 34770 ft 466 kts 235°
2026-04-14 10:44 43.28406 -0.04879 34980 ft 464 kts 235°
2026-04-14 10:44 43.26228 -0.08152 35084 ft 465 kts 235°
2026-04-14 10:45 43.24040 -0.11437 35146 ft 468 kts 235°
2026-04-14 10:45 43.19621 -0.18061 35215 ft 474 kts 235°
2026-04-14 10:46 43.15134 -0.24769 35219 ft 481 kts 235°
2026-04-14 10:46 43.10576 -0.31560 35217 ft 488 kts 234°
2026-04-14 10:47 43.05939 -0.38456 35202 ft 494 kts 234°
2026-04-14 10:47 43.01261 -0.45387 35182 ft 496 kts 234°
2026-04-14 10:48 42.96577 -0.52315 35179 ft 497 kts 234°
2026-04-14 10:48 42.91899 -0.59217 35155 ft 490 kts 234°
2026-04-14 10:48 42.89739 -0.62745 35163 ft 479 kts 244°
2026-04-14 10:49 42.88089 -0.66624 35168 ft 468 kts 254°
2026-04-14 10:49 42.86180 -0.74812 35164 ft 448 kts 269°
2026-04-14 10:50 42.85138 -0.83189 35172 ft 450 kts 270°
2026-04-14 10:50 42.84079 -0.91611 35171 ft 452 kts 269°
2026-04-14 10:51 42.82974 -1.00053 35148 ft 453 kts 269°
2026-04-14 10:51 42.81845 -1.08502 35153 ft 454 kts 269°
2026-04-14 10:52 42.80705 -1.16952 35158 ft 453 kts 269°
2026-04-14 10:52 42.79563 -1.25373 35192 ft 452 kts 269°
2026-04-14 10:53 42.78422 -1.33793 35196 ft 453 kts 269°
2026-04-14 10:53 42.77269 -1.42229 35210 ft 453 kts 269°
2026-04-14 10:54 42.76107 -1.50685 35207 ft 455 kts 269°
2026-04-14 10:54 42.74936 -1.59156 35200 ft 456 kts 269°
2026-04-14 10:55 42.73759 -1.67623 35213 ft 456 kts 269°
2026-04-14 10:55 42.72224 -1.76061 35204 ft 464 kts 262°
2026-04-14 10:56 42.70254 -1.84412 35204 ft 463 kts 261°
2026-04-14 10:56 42.68302 -1.92728 35193 ft 461 kts 262°
2026-04-14 10:57 42.66405 -2.01026 35187 ft 459 kts 262°
2026-04-14 10:57 42.64529 -2.09263 35199 ft 458 kts 262°
2026-04-14 10:58 42.62941 -2.16187 35194 ft 458 kts 262°
2026-04-14 10:58 42.60644 -2.25747 35208 ft 459 kts 261°
2026-04-14 10:59 42.58634 -2.33941 35208 ft 458 kts 261°
2026-04-14 10:59 42.56964 -2.40767 35199 ft 457 kts 261°
2026-04-14 11:00 42.54962 -2.48950 35199 ft 456 kts 261°
2026-04-14 11:00 42.52963 -2.57106 35211 ft 456 kts 261°
2026-04-14 11:01 42.50957 -2.65257 35202 ft 455 kts 261°
2026-04-14 11:01 42.48950 -2.73386 35192 ft 455 kts 260°
2026-04-14 11:02 42.46938 -2.81511 35200 ft 454 kts 260°
2026-04-14 11:02 42.44871 -2.89597 35190 ft 458 kts 256°
2026-04-14 11:03 42.42249 -2.97515 35191 ft 461 kts 252°
2026-04-14 11:03 42.39491 -3.05358 35212 ft 462 kts 253°
2026-04-14 11:04 42.36755 -3.13229 35199 ft 462 kts 253°
2026-04-14 11:04 42.34053 -3.21097 35217 ft 461 kts 253°
2026-04-14 11:05 42.31357 -3.28962 35215 ft 461 kts 253°
2026-04-14 11:05 42.28659 -3.36813 35219 ft 461 kts 253°
2026-04-14 11:06 42.25953 -3.44660 35231 ft 461 kts 253°
2026-04-14 11:06 42.23241 -3.52499 35232 ft 460 kts 253°
2026-04-14 11:07 42.20545 -3.60271 35236 ft 460 kts 253°
2026-04-14 11:07 42.17812 -3.68127 35225 ft 460 kts 252°
2026-04-14 11:08 42.15090 -3.75928 35224 ft 459 kts 252°
2026-04-14 11:08 42.12369 -3.83707 35217 ft 459 kts 252°
2026-04-14 11:09 42.09661 -3.91427 35210 ft 458 kts 252°
2026-04-14 11:09 42.06939 -3.99165 35211 ft 457 kts 252°
2026-04-14 11:10 42.02851 -4.10754 35210 ft 456 kts 252°
2026-04-14 11:10 42.00011 -4.18406 35212 ft 458 kts 250°
2026-04-14 11:11 41.97088 -4.26001 35204 ft 457 kts 250°
2026-04-14 11:11 41.94171 -4.33581 35218 ft 456 kts 250°
2026-04-14 11:12 41.91269 -4.41147 35214 ft 456 kts 250°
2026-04-14 11:12 41.88366 -4.48717 35213 ft 455 kts 250°
2026-04-14 11:13 41.85466 -4.56263 35222 ft 455 kts 250°
2026-04-14 11:13 41.82566 -4.63789 35225 ft 454 kts 250°
2026-04-14 11:14 41.79664 -4.71299 35230 ft 453 kts 250°
2026-04-14 11:14 41.76760 -4.78795 35233 ft 453 kts 250°
2026-04-14 11:15 41.73852 -4.86282 35233 ft 453 kts 250°
2026-04-14 11:15 41.70939 -4.93762 35235 ft 453 kts 249°
2026-04-14 11:16 41.68044 -5.01177 35240 ft 453 kts 249°
2026-04-14 11:16 41.65117 -5.08655 35228 ft 454 kts 249°
2026-04-14 11:17 41.62186 -5.16123 35233 ft 454 kts 249°
2026-04-14 11:17 41.59243 -5.23603 35226 ft 455 kts 249°
2026-04-14 11:18 41.56295 -5.31077 35224 ft 455 kts 249°
2026-04-14 11:18 41.53343 -5.38540 35227 ft 455 kts 249°
2026-04-14 11:19 41.50381 -5.46012 35223 ft 455 kts 249°
2026-04-14 11:19 41.47417 -5.53468 35233 ft 455 kts 249°
2026-04-14 11:20 41.44449 -5.60915 35219 ft 455 kts 248°
2026-04-14 11:20 41.41476 -5.68358 35225 ft 454 kts 248°
2026-04-14 11:21 41.38503 -5.75781 35233 ft 454 kts 248°
2026-04-14 11:21 41.35525 -5.83197 35231 ft 454 kts 248°
2026-04-14 11:22 41.32552 -5.90585 35234 ft 453 kts 248°
2026-04-14 11:22 41.29568 -5.97979 35234 ft 453 kts 248°
2026-04-14 11:23 41.26608 -6.05297 35234 ft 452 kts 248°
2026-04-14 11:23 41.23610 -6.12692 35237 ft 452 kts 248°
2026-04-14 11:24 41.20624 -6.20042 35235 ft 451 kts 248°
2026-04-14 11:24 41.17534 -6.27233 35236 ft 456 kts 240°
2026-04-14 11:25 41.13134 -6.33413 35256 ft 465 kts 227°
2026-04-14 11:25 41.08255 -6.39070 35249 ft 466 kts 226°
2026-04-14 11:26 41.03375 -6.44713 35246 ft 466 kts 227°
2026-04-14 11:26 40.98524 -6.50390 35248 ft 465 kts 227°
2026-04-14 11:27 40.93685 -6.56081 35248 ft 465 kts 227°
2026-04-14 11:27 40.88852 -6.61763 35252 ft 465 kts 227°
2026-04-14 11:28 40.84013 -6.67439 35259 ft 465 kts 227°
2026-04-14 11:28 40.79171 -6.73105 35254 ft 465 kts 227°
2026-04-14 11:29 40.74329 -6.78758 35255 ft 465 kts 227°
2026-04-14 11:29 40.69482 -6.84406 35264 ft 465 kts 227°
2026-04-14 11:30 40.64628 -6.90050 35262 ft 465 kts 227°
2026-04-14 11:30 40.59785 -6.95670 35251 ft 465 kts 227°
2026-04-14 11:31 40.54924 -7.01299 35250 ft 465 kts 226°
2026-04-14 11:31 40.50069 -7.06910 35250 ft 464 kts 226°
2026-04-14 11:32 40.45218 -7.12506 35255 ft 464 kts 226°
2026-04-14 11:32 40.40399 -7.18053 35259 ft 464 kts 226°
2026-04-14 11:33 40.35545 -7.23630 35247 ft 463 kts 226°
2026-04-14 11:34 40.28266 -7.31972 35250 ft 463 kts 226°
2026-04-14 11:34 40.23411 -7.37522 35255 ft 463 kts 226°
2026-04-14 11:35 40.18557 -7.43060 35249 ft 463 kts 226°
2026-04-14 11:35 40.13699 -7.48592 35259 ft 463 kts 226°
2026-04-14 11:36 40.08838 -7.54116 35258 ft 463 kts 226°
2026-04-14 11:36 40.03967 -7.59641 35248 ft 464 kts 226°
2026-04-14 11:37 39.99100 -7.65152 35254 ft 463 kts 226°
2026-04-14 11:37 39.94234 -7.70648 35252 ft 462 kts 226°
2026-04-14 11:38 39.89381 -7.76119 35266 ft 461 kts 226°
2026-04-14 11:38 39.84556 -7.81551 35247 ft 462 kts 226°
2026-04-14 11:39 39.79701 -7.87004 35251 ft 461 kts 226°
2026-04-14 11:39 39.74839 -7.92454 35261 ft 461 kts 225°
2026-04-14 11:40 39.69986 -7.97884 35266 ft 461 kts 225°
2026-04-14 11:40 39.65116 -8.03322 35268 ft 461 kts 225°
2026-04-14 11:41 39.60248 -8.08749 35271 ft 462 kts 225°
2026-04-14 11:41 39.55369 -8.14177 35269 ft 462 kts 225°
2026-04-14 11:42 39.50483 -8.19601 35267 ft 462 kts 225°
2026-04-14 11:42 39.45601 -8.25011 35278 ft 462 kts 225°
2026-04-14 11:43 39.41534 -8.29509 35275 ft 462 kts 225°
2026-04-14 11:43 39.35819 -8.35819 35282 ft 462 kts 225°
2026-04-14 11:44 39.31760 -8.40292 35277 ft 461 kts 225°
2026-04-14 11:44 39.26878 -8.45662 35276 ft 461 kts 225°
2026-04-14 11:45 39.21207 -8.51888 35277 ft 460 kts 225°
2026-04-14 11:45 39.17132 -8.56353 35280 ft 459 kts 225°
2026-04-14 11:46 39.12269 -8.61673 35281 ft 458 kts 225°
2026-04-14 11:46 39.07409 -8.66978 35281 ft 457 kts 225°
2026-04-14 11:47 39.02561 -8.72262 35279 ft 456 kts 225°
2026-04-14 11:47 38.97723 -8.77525 35287 ft 456 kts 225°
2026-04-14 11:48 38.92912 -8.82747 35285 ft 455 kts 225°
2026-04-14 11:48 38.88079 -8.87985 35292 ft 454 kts 225°
2026-04-14 11:49 38.83247 -8.93213 35287 ft 454 kts 225°
2026-04-14 11:49 38.78413 -8.98433 35292 ft 454 kts 224°
2026-04-14 11:50 38.73582 -9.03639 35292 ft 454 kts 224°
2026-04-14 11:50 38.68744 -9.08844 35295 ft 453 kts 224°
2026-04-14 11:51 38.61493 -9.16627 35296 ft 453 kts 224°
2026-04-14 11:51 38.56661 -9.21801 35293 ft 453 kts 224°
2026-04-14 11:52 38.51830 -9.26966 35294 ft 453 kts 224°
2026-04-14 11:52 38.46993 -9.32127 35295 ft 453 kts 224°
2026-04-14 11:53 38.42191 -9.37243 35295 ft 452 kts 224°
2026-04-14 11:53 38.37354 -9.42385 35298 ft 452 kts 224°
2026-04-14 11:54 38.32521 -9.47514 35298 ft 452 kts 224°
2026-04-14 11:54 38.27690 -9.52633 35301 ft 452 kts 224°
2026-04-14 11:55 38.22860 -9.57740 35303 ft 451 kts 224°
2026-04-14 11:55 38.18035 -9.62834 35301 ft 451 kts 224°
2026-04-14 11:56 38.13203 -9.67927 35302 ft 451 kts 224°
2026-04-14 11:56 38.08376 -9.73006 35300 ft 451 kts 224°
2026-04-14 11:57 38.03545 -9.78081 35310 ft 450 kts 224°
2026-04-14 11:57 37.98881 -9.83277 35299 ft 446 kts 232°
2026-04-14 11:58 37.94828 -9.89196 35302 ft 444 kts 233°
2026-04-14 11:58 37.90831 -9.95164 35308 ft 444 kts 233°
2026-04-14 11:59 37.86810 -10.01109 35308 ft 444 kts 233°
2026-04-14 11:59 37.82772 -10.07022 35304 ft 444 kts 233°
2026-04-14 12:00 37.78720 -10.12929 35308 ft 444 kts 233°
2026-04-14 12:00 37.74666 -10.18824 35308 ft 444 kts 233°
2026-04-14 12:01 37.70604 -10.24722 35306 ft 444 kts 232°
2026-04-14 12:01 37.66543 -10.30610 35314 ft 444 kts 232°
2026-04-14 12:02 37.62482 -10.36486 35307 ft 444 kts 232°
2026-04-14 12:02 37.58420 -10.42353 35313 ft 444 kts 232°
2026-04-14 12:03 37.54356 -10.48213 35317 ft 444 kts 232°
2026-04-14 12:03 37.50318 -10.54026 35321 ft 444 kts 232°
2026-04-14 12:04 37.46250 -10.59870 35318 ft 443 kts 232°
2026-04-14 12:04 37.42176 -10.65712 35320 ft 443 kts 232°
2026-04-14 12:05 37.38110 -10.71533 35317 ft 443 kts 232°
2026-04-14 12:05 37.34040 -10.77349 35311 ft 443 kts 232°
2026-04-14 12:06 37.29966 -10.83160 35326 ft 443 kts 232°
2026-04-14 12:06 37.25890 -10.88964 35322 ft 443 kts 232°
2026-04-14 12:07 37.21819 -10.94751 35316 ft 443 kts 231°
2026-04-14 12:07 37.17736 -11.00543 35319 ft 442 kts 231°
2026-04-14 12:08 37.13658 -11.06320 35315 ft 442 kts 231°
2026-04-14 12:08 37.09580 -11.12085 35316 ft 442 kts 231°
2026-04-14 12:09 37.05497 -11.17847 35322 ft 442 kts 231°
2026-04-14 12:09 37.01412 -11.23604 35322 ft 442 kts 231°
2026-04-14 12:10 36.97328 -11.29347 35322 ft 442 kts 231°
2026-04-14 12:10 36.93240 -11.35087 35320 ft 442 kts 231°
2026-04-14 12:11 36.89152 -11.40816 35321 ft 441 kts 231°
2026-04-14 12:11 36.85064 -11.46535 35319 ft 441 kts 231°
2026-04-14 12:12 36.80978 -11.52242 35321 ft 441 kts 231°
2026-04-14 12:12 36.76916 -11.57906 35318 ft 441 kts 231°
2026-04-14 12:13 36.72827 -11.63598 35318 ft 440 kts 231°
2026-04-14 12:13 36.68738 -11.69279 35323 ft 440 kts 231°
2026-04-14 12:14 36.64649 -11.74950 35318 ft 440 kts 230°
2026-04-14 12:14 36.60559 -11.80614 35323 ft 440 kts 230°
2026-04-14 12:15 36.56471 -11.86265 35320 ft 439 kts 230°
2026-04-14 12:15 36.52377 -11.91914 35320 ft 439 kts 230°
2026-04-14 12:16 36.48283 -11.97554 35320 ft 439 kts 230°
2026-04-14 12:16 36.44186 -12.03189 35323 ft 439 kts 230°
2026-04-14 12:17 36.40086 -12.08817 35320 ft 439 kts 230°
2026-04-14 12:17 36.35986 -12.14437 35320 ft 439 kts 230°
2026-04-14 12:18 36.31907 -12.20019 35320 ft 440 kts 230°
2026-04-14 12:18 36.27793 -12.25639 35320 ft 440 kts 230°
2026-04-14 12:19 36.23679 -12.31250 35322 ft 440 kts 230°
2026-04-14 12:19 36.19557 -12.36862 35323 ft 440 kts 230°
2026-04-14 12:20 36.15437 -12.42461 35322 ft 440 kts 230°
2026-04-14 12:20 36.11308 -12.48065 35321 ft 441 kts 229°
2026-04-14 12:21 36.07177 -12.53663 35326 ft 441 kts 229°
2026-04-14 12:21 36.03040 -12.59256 35325 ft 440 kts 229°
2026-04-14 12:22 35.98908 -12.64833 35323 ft 440 kts 229°
2026-04-14 12:22 35.94770 -12.70410 35326 ft 440 kts 229°
2026-04-14 12:23 35.90634 -12.75978 35325 ft 440 kts 229°
2026-04-14 12:23 35.86502 -12.81531 35322 ft 440 kts 229°
2026-04-14 12:24 35.82364 -12.87083 35323 ft 439 kts 229°
2026-04-14 12:24 35.78234 -12.92615 35325 ft 439 kts 229°
2026-04-14 12:25 35.74102 -12.98141 35327 ft 438 kts 229°
2026-04-14 12:25 35.69966 -13.03662 35322 ft 438 kts 229°
2026-04-14 12:26 35.65837 -13.09166 35326 ft 438 kts 229°
2026-04-14 12:26 35.61707 -13.14662 35326 ft 437 kts 229°
2026-04-14 12:27 35.57574 -13.20153 35325 ft 437 kts 228°
2026-04-14 12:27 35.53444 -13.25630 35325 ft 437 kts 228°
2026-04-14 12:28 35.49311 -13.31104 35325 ft 437 kts 228°
2026-04-14 12:28 35.45175 -13.36571 35326 ft 437 kts 228°
2026-04-14 12:29 35.41041 -13.42028 35324 ft 437 kts 228°
2026-04-14 12:29 35.37603 -13.46559 35322 ft 437 kts 228°
2026-04-14 12:30 35.32789 -13.52894 35324 ft 437 kts 228°
2026-04-14 12:30 35.28643 -13.58340 35323 ft 437 kts 228°
2026-04-14 12:31 35.25167 -13.62899 35323 ft 437 kts 228°
2026-04-14 12:31 35.21015 -13.68336 35324 ft 437 kts 228°
2026-04-14 12:32 35.16888 -13.73733 35324 ft 437 kts 228°
2026-04-14 12:32 35.12727 -13.79164 35322 ft 437 kts 227°
2026-04-14 12:33 35.08571 -13.84582 35325 ft 437 kts 227°
2026-04-14 12:33 35.04404 -13.90004 35322 ft 438 kts 227°
2026-04-14 12:34 35.00235 -13.95420 35325 ft 438 kts 227°
2026-04-14 12:34 34.96065 -14.00829 35326 ft 438 kts 227°
2026-04-14 12:35 34.91896 -14.06229 35324 ft 437 kts 227°
2026-04-14 12:35 34.87722 -14.11625 35318 ft 437 kts 227°
2026-04-14 12:36 34.83549 -14.17013 35320 ft 437 kts 227°
2026-04-14 12:36 34.79370 -14.22400 35323 ft 437 kts 227°
2026-04-14 12:37 34.75194 -14.27774 35320 ft 437 kts 227°
2026-04-14 12:37 34.71015 -14.33143 35320 ft 437 kts 227°
2026-04-14 12:38 34.64744 -14.41185 35322 ft 437 kts 227°
2026-04-14 12:39 34.60559 -14.46540 35321 ft 437 kts 227°
2026-04-14 12:39 34.56373 -14.51889 35323 ft 437 kts 227°
2026-04-14 12:40 34.52179 -14.57240 35319 ft 437 kts 227°
2026-04-14 12:40 34.47989 -14.62578 35324 ft 437 kts 227°
2026-04-14 12:41 34.43821 -14.67879 35326 ft 437 kts 227°
2026-04-14 12:41 34.39627 -14.73205 35319 ft 437 kts 227°
2026-04-14 12:42 34.35424 -14.78534 35316 ft 437 kts 227°
2026-04-14 12:42 34.31248 -14.83821 35307 ft 430 kts 227°
2026-04-14 12:43 34.27137 -14.89017 35313 ft 425 kts 226°
2026-04-14 12:43 34.23050 -14.94176 34907 ft 423 kts 226°
2026-04-14 12:43 34.21024 -14.96730 34518 ft 419 kts 226°
2026-04-14 12:44 34.19013 -14.99263 34119 ft 415 kts 226°
2026-04-14 12:44 34.17022 -15.01769 33684 ft 413 kts 226°
2026-04-14 12:44 34.15043 -15.04259 33272 ft 409 kts 226°
2026-04-14 12:45 34.11128 -15.09177 32483 ft 403 kts 226°
2026-04-14 12:45 34.09190 -15.11610 32095 ft 400 kts 226°
2026-04-14 12:45 34.07263 -15.14027 31709 ft 398 kts 227°
2026-04-14 12:45 34.05347 -15.16429 31328 ft 395 kts 227°
2026-04-14 12:46 34.03445 -15.18811 30952 ft 393 kts 227°
2026-04-14 12:46 34.01553 -15.21180 30580 ft 391 kts 227°
2026-04-14 12:46 33.99668 -15.23538 30172 ft 389 kts 227°
2026-04-14 12:46 33.97796 -15.25878 29745 ft 387 kts 227°
2026-04-14 12:47 33.95935 -15.28204 29328 ft 384 kts 227°
2026-04-14 12:47 33.94086 -15.30512 28937 ft 381 kts 227°
2026-04-14 12:47 33.92256 -15.32795 28552 ft 378 kts 227°
2026-04-14 12:47 33.90438 -15.35061 28168 ft 375 kts 227°
2026-04-14 12:48 33.88630 -15.37315 27786 ft 372 kts 227°
2026-04-14 12:48 33.86834 -15.39551 27417 ft 370 kts 227°
2026-04-14 12:48 33.85053 -15.41767 27035 ft 367 kts 227°
2026-04-14 12:48 33.83278 -15.43973 26676 ft 365 kts 227°
2026-04-14 12:49 33.81519 -15.46159 26311 ft 363 kts 227°
2026-04-14 12:49 33.79770 -15.48333 25940 ft 361 kts 227°
2026-04-14 12:49 33.78026 -15.50497 25579 ft 359 kts 227°
2026-04-14 12:49 33.76288 -15.52654 25227 ft 358 kts 227°
2026-04-14 12:50 33.74580 -15.54771 24863 ft 356 kts 227°
2026-04-14 12:50 33.71136 -15.59037 24126 ft 355 kts 227°
2026-04-14 12:50 33.69420 -15.61162 23730 ft 354 kts 227°
2026-04-14 12:51 33.67710 -15.63276 23326 ft 352 kts 227°
2026-04-14 12:51 33.66007 -15.65382 22946 ft 350 kts 227°
2026-04-14 12:51 33.64315 -15.67471 22579 ft 348 kts 227°
2026-04-14 12:51 33.62639 -15.69541 22222 ft 345 kts 227°
2026-04-14 12:52 33.60969 -15.71602 21871 ft 343 kts 227°
2026-04-14 12:52 33.59309 -15.73650 21517 ft 341 kts 227°
2026-04-14 12:52 33.57658 -15.75685 21170 ft 339 kts 227°
2026-04-14 12:52 33.56020 -15.77702 20825 ft 337 kts 227°
2026-04-14 12:53 33.54371 -15.79694 20487 ft 336 kts 226°
2026-04-14 12:53 33.52709 -15.81649 20147 ft 334 kts 226°
2026-04-14 12:53 33.51044 -15.83593 19800 ft 333 kts 226°
2026-04-14 12:53 33.49389 -15.85522 19468 ft 332 kts 226°
2026-04-14 12:54 33.47734 -15.87453 19125 ft 331 kts 226°
2026-04-14 12:54 33.46088 -15.89377 18782 ft 330 kts 226°
2026-04-14 12:54 33.44443 -15.91299 18416 ft 330 kts 226°
2026-04-14 12:54 33.42808 -15.93210 18043 ft 328 kts 226°
2026-04-14 12:55 33.41178 -15.95116 17690 ft 327 kts 226°
2026-04-14 12:55 33.39553 -15.97015 17344 ft 325 kts 226°
2026-04-14 12:55 33.37941 -15.98898 17007 ft 323 kts 226°
2026-04-14 12:55 33.36333 -16.00777 16673 ft 322 kts 226°
2026-04-14 12:56 33.34753 -16.02620 16348 ft 320 kts 225°
2026-04-14 12:56 33.33141 -16.04501 16015 ft 319 kts 226°
2026-04-14 12:56 33.31570 -16.06332 15691 ft 318 kts 225°
2026-04-14 12:56 33.29992 -16.08171 15367 ft 317 kts 226°
2026-04-14 12:57 33.28414 -16.10009 15041 ft 316 kts 225°
2026-04-14 12:57 33.26838 -16.11844 14716 ft 316 kts 225°
2026-04-14 12:57 33.25266 -16.13673 14386 ft 315 kts 225°
2026-04-14 12:57 33.23695 -16.15500 14041 ft 315 kts 225°
2026-04-14 12:58 33.22123 -16.17327 13680 ft 315 kts 225°
2026-04-14 12:58 33.20557 -16.19146 13342 ft 314 kts 225°
2026-04-14 12:58 33.18997 -16.20958 13008 ft 313 kts 225°
2026-04-14 12:58 33.17440 -16.22765 12679 ft 311 kts 225°
2026-04-14 12:59 33.15888 -16.24566 12353 ft 310 kts 225°
2026-04-14 12:59 33.14342 -16.26359 12034 ft 309 kts 225°
2026-04-14 12:59 33.12799 -16.28146 11714 ft 308 kts 225°
2026-04-14 12:59 33.11263 -16.29925 11399 ft 308 kts 225°
2026-04-14 13:00 33.09728 -16.31702 11076 ft 308 kts 225°
2026-04-14 13:00 33.08191 -16.33481 10759 ft 308 kts 225°
2026-04-14 13:00 33.06685 -16.35222 10584 ft 302 kts 225°
2026-04-14 13:00 33.05194 -16.36944 10428 ft 295 kts 225°
2026-04-14 13:01 33.03730 -16.38636 10248 ft 291 kts 225°
2026-04-14 13:01 33.02279 -16.40312 9938 ft 290 kts 224°
2026-04-14 13:01 33.00832 -16.41983 9643 ft 289 kts 224°
2026-04-14 13:01 32.99391 -16.43646 9352 ft 288 kts 224°
2026-04-14 13:02 32.97954 -16.45304 9061 ft 286 kts 224°
2026-04-14 13:02 32.96526 -16.46950 8770 ft 285 kts 224°
2026-04-14 13:02 32.95100 -16.48593 8481 ft 284 kts 224°
2026-04-14 13:02 32.93682 -16.50225 8205 ft 283 kts 224°
2026-04-14 13:03 32.92262 -16.51839 7920 ft 282 kts 222°
2026-04-14 13:03 32.90808 -16.53398 7641 ft 281 kts 221°
2026-04-14 13:03 32.89350 -16.54940 7360 ft 280 kts 221°
2026-04-14 13:03 32.87901 -16.56477 7160 ft 276 kts 221°
2026-04-14 13:04 32.86505 -16.57964 7029 ft 269 kts 221°
2026-04-14 13:04 32.85125 -16.59434 6855 ft 265 kts 221°
2026-04-14 13:04 32.83736 -16.60914 6583 ft 264 kts 220°
2026-04-14 13:04 32.82372 -16.62320 6315 ft 262 kts 215°
2026-04-14 13:05 32.80820 -16.63437 6049 ft 260 kts 203°
2026-04-14 13:05 32.79131 -16.64174 5694 ft 261 kts 196°
2026-04-14 13:05 32.77372 -16.64868 5270 ft 268 kts 197°
2026-04-14 13:05 32.75591 -16.65583 4929 ft 270 kts 197°
2026-04-14 13:06 32.73818 -16.66299 4635 ft 269 kts 197°
2026-04-14 13:06 32.72045 -16.67018 4364 ft 268 kts 197°
2026-04-14 13:06 32.70322 -16.67717 4192 ft 254 kts 197°
2026-04-14 13:06 32.68691 -16.68379 3939 ft 242 kts 196°
2026-04-14 13:07 32.67140 -16.69008 3661 ft 230 kts 197°
2026-04-14 13:07 32.65660 -16.69607 3432 ft 219 kts 197°
2026-04-14 13:07 32.64260 -16.70176 3215 ft 207 kts 198°
2026-04-14 13:07 32.62979 -16.70839 2994 ft 196 kts 211°
2026-04-14 13:08 32.61970 -16.71859 2801 ft 186 kts 231°
2026-04-14 13:08 32.61307 -16.73127 2617 ft 177 kts 247°
2026-04-14 13:08 32.60955 -16.74464 2506 ft 165 kts 260°
2026-04-14 13:08 32.60837 -16.75828 2267 ft 167 kts 272°
2026-04-14 13:09 32.60975 -16.77184 2034 ft 165 kts 286°
2026-04-14 13:09 32.61393 -16.78434 1812 ft 162 kts 304°
2026-04-14 13:09 32.62101 -16.79439 1612 ft 160 kts 323°
2026-04-14 13:09 32.63036 -16.80094 1391 ft 153 kts 343°
2026-04-14 13:10 32.64078 -16.80357 1287 ft 159 kts 358°
2026-04-14 13:10 32.65184 -16.80382 987 ft 160 kts
2026-04-14 13:10 32.66252 -16.80346 809 ft 149 kts
2026-04-14 13:10 32.66578 -16.80316 765 ft 147 kts
2026-04-14 13:11 32.66987 -16.80293 719 ft 146 kts
2026-04-14 13:11 32.67844 -16.79698 399 ft 149 kts 44°
2026-04-14 13:12 32.68566 -16.78866 220 ft 141 kts 44°
2026-04-14 13:12 32.69265 -16.78056 162 ft 134 kts 44°
2026-04-14 13:12 32.69810 -16.77419 175 ft 80 kts 44°
2026-04-14 13:12 32.70058 -16.77131 180 ft 29 kts 44°
2026-04-14 13:13 32.70198 -16.76968 183 ft 27 kts 44°
2026-04-14 13:13 32.70312 -16.76839 195 ft 14 kts 32°
2026-04-14 13:13 32.70398 -16.76807 201 ft 9 kts 44°
2026-04-14 13:13 32.70397 -16.76763 192 ft 6 kts 130°
2026-04-14 13:14 32.70366 -16.76762 200 ft 5 kts 221°
2026-04-14 13:14 32.70346 -16.76794 195 ft 5 kts 232°
2026-04-14 13:14 32.70314 -16.76832 194 ft 9 kts 225°
2026-04-14 13:14 32.70248 -16.76910 187 ft 18 kts 225°
2026-04-14 13:15 32.70142 -16.77034 183 ft 22 kts 225°
2026-04-14 13:15 32.70042 -16.77151 179 ft 17 kts 225°
2026-04-14 13:15 32.70028 -16.77167 179 ft 0 kts 224°
2026-04-14 13:15 32.70005 -16.77178 179 ft 6 kts 191°
2026-04-14 13:16 32.69945 -16.77178 177 ft 11 kts 179°
2026-04-14 13:16 32.69853 -16.77178 175 ft 15 kts 192°
2026-04-14 13:16 32.69782 -16.77248 171 ft 15 kts 228°
2026-04-14 13:16 32.69713 -16.77335 166 ft 13 kts 224°
2026-04-14 13:17 32.69656 -16.77403 170 ft 11 kts 225°
2026-04-14 13:17 32.69619 -16.77447 173 ft 11 kts 225°
2026-04-14 13:17 32.69552 -16.77533 173 ft 11 kts 226°
2026-04-14 13:17 32.69518 -16.77575 173 ft 11 kts 225°
2026-04-14 13:18 32.69459 -16.77647 170 ft 14 kts 225°
2026-04-14 13:18 32.69414 -16.77699 168 ft 5 kts 215°
2026-04-14 13:18 32.69388 -16.77691 168 ft 4 kts 143°
2026-04-14 13:18 32.69368 -16.77671 170 ft 2 kts 139°
2026-04-14 13:19 32.69361 -16.77663 172 ft 0 kts 139°
2026-04-14 13:19 32.69360 -16.77663 172 ft 0 kts 139°
2026-04-14 13:20 32.69361 -16.77663 172 ft 0 kts 139°
2026-04-14 13:21 32.69361 -16.77664 172 ft 0 kts 139°
2026-04-14 13:21 32.69362 -16.77664 172 ft 0 kts 139°
2026-04-14 13:22 32.69362 -16.77665 171 ft 0 kts 139°
2026-04-14 13:23 32.69363 -16.77665 171 ft 0 kts 139°
2026-04-14 13:23 32.69363 -16.77666 171 ft 0 kts 139°
2026-04-14 13:24 32.69364 -16.77666 171 ft 0 kts 139°
2026-04-14 13:25 32.69364 -16.77667 171 ft 0 kts 139°
2026-04-14 13:26 32.69365 -16.77667 171 ft 0 kts 139°
2026-04-14 13:27 32.69365 -16.77668 171 ft 0 kts 139°